KUIPER-00171

Last updated on Mon Oct 20 2025 00:02:06 GMT+0000 (Coordinated Universal Time)

1 65784U 25217Y 25292.25413381 .00046117 00000+0 12830-2 0 9998 2 65784 51.8685 327.8276 0004289 161.2528 198.8617 15.36368598 3667
UTC large
Height (km)
Speed (km/s)
/
Latitude / Longitude
Inclination (degrees)
Orbital Period (minutes)
Azimuth
Elevation
Range (km)
Doppler Factor

Next 0 passes for location: London (51.5072 / 0.1276)

Sorry there are no passes over London.